BREEZE-M DEB (TANK), 42936

Orbit data source: Space-Track

BREEZE-M DEB (TANK), 42936 is space debris in HEO originally from a launch on Mon, 11 Sep 2017 UTC launched from the Tyuratam Missile And Space Complex (TTMTR). Debris objects in space refer to the collection of defunct objects orbiting the Earth. Examples of debris include non-operational satellites, rocket bodies, and fragments generated from explosions, collisions, or faulty payload assembly.

Loading next visibility...
Identifier
42936, 2017-053C
Orbit
HEO
Country
Flag of CISCIS
Related business
Manufacturer
Khrunichev
Mission
Spacecraft
Bus & Motor
BRIZ TANK, Unknown motor
Mass
~1,000 kg wet, 1,000 kg dry
Launch date (UTC)
2017-09-11 (8 years ago)
Launch vehicle
Unknown
Launch site
Tyuratam Missile And Space Complex (TTMTR)
Object type
Payload
Rocket body
Debris
Shape & HBR
Torus, 2.0 m
Radar Cross Section
8.218 m², Large (>1 m²)

Expand to show TLE details & history
Last TLE update: 4 days ago

TLE from 4 days ago
0 BREEZE-M DEB (TANK)
1 42936U 17053C   25334.83696141  .00004127  00000-0  10068-2 0  9996
2 42936  49.5103  66.5450 5095537 227.3173  76.7893  5.43264961159086
Epoch: 2025-11-30T20:05Z
TLE epoch observation values (Epoch: 2025-11-30T20:05:13.465Z)
Latitude
-0.00002°
Longitude
55.29686°
Altitude
9,097.22 km
Speed
4.729 km/s
True Right ascension
04h 26m 11s
True Declination
0° 00' 00"
Sunlit
Object was in full shadow at epoch
Visualization orbit readout
Latitude
Unknown
Longitude
Unknown
Altitude
Unknown
Speed
Unknown
Apparent Right ascension
Unknown
Apparent Declination
Unknown
Sunlit
N/A
Visualization observer readout
Local Sidereal Time
17:41:01
Azimuth
Unknown
Elevation
Unknown
Doppler factor
Unknown
Orbital elements
Apogee altitude
14,256.531 km
Perigee altitude
325.961 km
Semi-major axis
13,669.383 km
Eccentricity
0.50955
Inclination
49.5103°
RAAN
66.545°
Arg. of periapsis
227.3173°
True anomaly
132.74659°
Mean anomaly
76.7893°
Eccentric anomaly
104.99096°
Mean motion
1.35806 °/min
Orbital period
265.08 mins
BSTAR
0.0010068
Loading maneuver chart data...
Computing Atmospheric mass density...
Loading historical data...
Loading historical data...
Loading historical data...
Loading historical data...
Loading historical data...
Loading historical data...
Loading historical data...
Other satellites on launch #53 in the year 2017 (2017-09-11 UTC)

Documentation

Showing up to 5 results
|